Weather History for KMQI - May, 2013

Change the Weather History Date:

Tuesday, May 7, 2013

  Actual Average Record
Temperature  
Mean Temperature 68 °F -  
Max Temperature 75 °F 71 °F 92 °F (1986)
Min Temperature 60 °F 58 °F 40 °F (1968)
Cooling Degree Days 2    
Growing Degree Days 18 (Base 50)    
Moisture  
Dew Point 59 °F    
Average Humidity 77    
Maximum Humidity 93    
Minimum Humidity 52    
Precipitation  
Precipitation 0.03 in - - ()
Sea Level Pressure  
Sea Level Pressure 29.93 in    
Wind  
Wind Speed 11 mph (SSE)    
Max Wind Speed 20 mph    
Max Gust Speed 23 mph    
Visibility 10 miles    
Events Rain    
Averages and records for this station are not official NWS values.
T = Trace of Precipitation, MM = Missing Value Source: NWS Daily Summary

Daily Weather History Graph

Daily Weather History Graph

Search for Another Location

Airport or City:

Trip Planner

Search our weather history database for the weather conditions in past years. The results will help you decide how hot, cold, wet, or windy it might be!

Date:

Astronomy

May. 07, 2013 Rise Set
Actual Time 6:04 AM EDT 7:55 PM EDT
Civil Twilight 5:36 AM EDT 8:23 PM EDT
Nautical Twilight 5:02 AM EDT 8:56 PM EDT
Astronomical Twilight 4:26 AM EDT 9:33 PM EDT
Moon 4:32 AM EDT (5/7) 5:55 PM EDT (5/7)
Length of Visible Light 14h 46m
Length of Day
13h 51m
Waning Crescent, 5% of the Moon is Illuminated
May 7
Waning Crescent
May 9
New
May 18
First Quarter
May 25
Full
May 31
Last Quarter

Hourly Weather History & Observations

Time (EDT) Temp. Dew Point Humidity Pressure Visibility Wind Dir Wind Speed Gust Speed Precip Events Conditions
12:15 AM 63.3 °F 60.8 °F 91% 29.96 in 7.0 mi SE 10.4 mph - N/A   Mostly Cloudy
12:35 AM 63.0 °F 60.4 °F 91% 29.95 in 10.0 mi SE 17.3 mph 21.9 mph N/A   Mostly Cloudy
12:55 AM 62.8 °F 59.2 °F 88% 29.95 in 10.0 mi SE 17.3 mph 23.0 mph N/A   Mostly Cloudy
1:15 AM 62.6 °F 59.5 °F 90% 29.94 in 10.0 mi SE 15.0 mph - N/A   Mostly Cloudy
1:35 AM 64.4 °F 58.1 °F 80% 29.93 in 10.0 mi ESE 12.7 mph 20.7 mph N/A   Overcast
1:55 AM 64.6 °F 60.1 °F 85% 29.91 in 10.0 mi ESE 10.4 mph - N/A   Mostly Cloudy
2:15 AM 65.8 °F 61.7 °F 86% 29.91 in 10.0 mi SE 12.7 mph - 0.01 in   Overcast
2:35 AM 65.3 °F 61.2 °F 86% 29.90 in 10.0 mi SE 11.5 mph 17.3 mph 0.01 in   Mostly Cloudy
2:55 AM 66.0 °F 61.5 °F 85% 29.91 in 10.0 mi SE 13.8 mph 19.6 mph 0.01 in   Overcast
3:15 AM 65.7 °F 61.9 °F 88% 29.91 in 10.0 mi SSE 12.7 mph 19.6 mph N/A   Overcast
3:35 AM 64.9 °F 61.7 °F 89% 29.91 in 7.0 mi SSW 6.9 mph 11.5 mph N/A Rain Light Rain
3:55 AM 64.0 °F 61.9 °F 93% 29.91 in 7.0 mi South 5.8 mph - N/A   Overcast
4:15 AM 64.4 °F 61.7 °F 91% 29.90 in 10.0 mi South 6.9 mph - N/A   Overcast
4:35 AM 64.6 °F 61.3 °F 89% 29.90 in 10.0 mi SSE 6.9 mph - N/A   Mostly Cloudy
4:55 AM 64.4 °F 61.2 °F 89% 29.90 in 10.0 mi SE 10.4 mph - N/A   Overcast
5:15 AM 63.9 °F 60.8 °F 90% 29.91 in 10.0 mi SE 10.4 mph - N/A   Overcast
5:35 AM 64.8 °F 60.1 °F 85% 29.89 in 10.0 mi SSE 9.2 mph 17.3 mph N/A   Overcast
5:55 AM 64.6 °F 58.8 °F 82% 29.90 in 10.0 mi SE 9.2 mph - N/A   Overcast
6:15 AM 64.4 °F 59.4 °F 84% 29.91 in 10.0 mi SE 11.5 mph - N/A   Overcast
6:35 AM 64.6 °F 57.7 °F 78% 29.91 in 10.0 mi SE 9.2 mph - N/A   Overcast
6:55 AM 63.5 °F 58.5 °F 84% 29.91 in 10.0 mi SE 8.1 mph - N/A   Mostly Cloudy
7:15 AM 63.3 °F 59.0 °F 86% 29.92 in 10.0 mi SE 6.9 mph - N/A   Scattered Clouds
7:35 AM 64.6 °F 57.6 °F 78% 29.92 in 10.0 mi SE 8.1 mph - N/A   Mostly Cloudy
7:55 AM 64.8 °F 59.4 °F 83% 29.93 in 10.0 mi SE 6.9 mph - N/A   Overcast
8:15 AM 65.7 °F 59.7 °F 81% 29.92 in 10.0 mi SE 9.2 mph - N/A   Overcast
8:35 AM 66.6 °F 60.3 °F 80% 29.93 in 10.0 mi SE 9.2 mph - N/A   Mostly Cloudy
8:55 AM 67.6 °F 61.0 °F 79% 29.93 in 10.0 mi SE 15.0 mph - N/A   Overcast
9:15 AM 68.2 °F 60.8 °F 77% 29.94 in 10.0 mi SE 12.7 mph - N/A   Scattered Clouds
9:35 AM 68.4 °F 61.0 °F 77% 29.95 in 10.0 mi ESE 16.1 mph - N/A   Clear
9:55 AM 68.4 °F 61.2 °F 78% 29.95 in 10.0 mi ESE 13.8 mph 20.7 mph N/A   Clear
10:15 AM 67.8 °F 60.6 °F 78% 29.95 in 10.0 mi SE 10.4 mph - N/A   Clear
10:35 AM 70.9 °F 62.6 °F 75% 29.94 in 10.0 mi SSE 6.9 mph - N/A   Clear
10:55 AM 71.2 °F 62.1 °F 73% 29.94 in 10.0 mi SSW 8.1 mph - N/A   Mostly Cloudy
11:15 AM 69.8 °F 62.2 °F 77% 29.94 in 10.0 mi South 8.1 mph - N/A   Mostly Cloudy
11:35 AM 69.6 °F 62.2 °F 77% 29.94 in 10.0 mi South 9.2 mph - N/A   Mostly Cloudy
11:55 AM 70.3 °F 62.6 °F 76% 29.93 in 10.0 mi South 9.2 mph - N/A   Scattered Clouds
12:15 PM 72.7 °F 63.0 °F 71% 29.93 in 10.0 mi SSE 8.1 mph - N/A   Scattered Clouds
12:35 PM 73.6 °F 62.2 °F 68% 29.93 in 10.0 mi South 10.4 mph - N/A   Scattered Clouds
12:55 PM 73.6 °F 60.8 °F 64% 29.93 in 10.0 mi South 11.5 mph - N/A   Scattered Clouds
1:15 PM 74.8 °F 59.9 °F 60% 29.93 in 10.0 mi South 11.5 mph - N/A   Scattered Clouds
1:35 PM 75.0 °F 59.2 °F 58% 29.93 in 10.0 mi South 10.4 mph - N/A   Mostly Cloudy
1:55 PM 74.8 °F 55.9 °F 52% 29.92 in 10.0 mi South 11.5 mph - N/A   Scattered Clouds
2:15 PM 73.9 °F 57.6 °F 56% 29.93 in 10.0 mi South 11.5 mph - N/A   Clear
2:35 PM 74.1 °F 57.4 °F 56% 29.92 in 10.0 mi South 12.7 mph - N/A   Clear
2:55 PM 74.1 °F 58.1 °F 57% 29.91 in 10.0 mi South 13.8 mph - N/A   Clear
3:15 PM 74.3 °F 56.8 °F 54% 29.90 in 10.0 mi South 12.7 mph - N/A   Clear
3:35 PM 72.5 °F 56.7 °F 57% 29.90 in 10.0 mi South 13.8 mph 19.6 mph N/A   Clear
3:55 PM 71.2 °F 57.0 °F 61% 29.90 in 10.0 mi South 15.0 mph 19.6 mph N/A   Clear
4:15 PM 70.0 °F 59.7 °F 70% 29.91 in 10.0 mi South 16.1 mph - N/A   Clear
4:35 PM 71.4 °F 59.9 °F 67% 29.91 in 10.0 mi South 13.8 mph - N/A   Scattered Clouds
4:55 PM 70.7 °F 59.4 °F 67% 29.92 in 10.0 mi South 12.7 mph 20.7 mph N/A   Clear
5:15 PM 70.7 °F 55.9 °F 59% 29.90 in 10.0 mi SSW 19.6 mph - N/A   Mostly Cloudy
5:35 PM 68.4 °F 57.2 °F 67% 29.93 in 10.0 mi SSW 17.3 mph - N/A   Overcast
5:55 PM 66.4 °F 56.1 °F 69% 29.92 in 10.0 mi SSW 17.3 mph - N/A Rain Rain
6:15 PM 65.3 °F 57.2 °F 75% 29.93 in 10.0 mi SW 13.8 mph - N/A Rain Light Rain
6:35 PM 64.6 °F 58.3 °F 80% 29.95 in 10.0 mi SW 13.8 mph - N/A   Light Drizzle
6:55 PM 63.5 °F 57.9 °F 82% 29.94 in 10.0 mi South 4.6 mph - N/A   Light Drizzle
7:15 PM 62.6 °F 58.1 °F 85% 29.94 in 10.0 mi SE 5.8 mph - N/A   Overcast
7:35 PM 63.0 °F 57.7 °F 83% 29.95 in 7.0 mi Calm Calm - 0.01 in Rain Light Rain
7:55 PM 62.6 °F 58.1 °F 85% 29.96 in 10.0 mi SSW 9.2 mph - 0.02 in   Unknown
8:15 PM 62.6 °F 55.4 °F 77% 29.96 in 10.0 mi SSW 9.2 mph - N/A   Unknown
8:35 PM 62.1 °F 55.2 °F 78% 29.97 in 10.0 mi South 6.9 mph - N/A   Unknown
8:55 PM 61.0 °F 54.7 °F 80% 29.97 in 10.0 mi South 4.6 mph - N/A   Clear
9:15 PM 61.0 °F 55.2 °F 81% 29.98 in 10.0 mi SSE 4.6 mph - N/A   Clear
9:35 PM 60.3 °F 55.9 °F 86% 29.98 in 10.0 mi SSE 5.8 mph - N/A   Clear
9:55 PM 60.6 °F 56.8 °F 87% 29.98 in 10.0 mi South 5.8 mph - N/A   Clear
10:15 PM 62.6 °F 54.5 °F 75% 29.98 in 10.0 mi SSW 12.7 mph - N/A   Clear
10:35 PM 62.6 °F 55.6 °F 78% 29.99 in 10.0 mi South 9.2 mph - N/A   Clear
10:55 PM 62.2 °F 55.4 °F 78% 29.99 in 10.0 mi South 9.2 mph - N/A   Clear
11:15 PM 62.4 °F 55.6 °F 78% 29.98 in 10.0 mi South 10.4 mph - N/A   Clear
11:35 PM 62.1 °F 55.2 °F 78% 29.98 in 10.0 mi South 8.1 mph - N/A   Clear
11:55 PM 62.8 °F 55.2 °F 76% 29.99 in 10.0 mi SSW 10.4 mph - N/A   Clear